Location: Bowden
(51.9167°N, 114.0333°W)
Time: 09:26:43
(UTC+00:00)

Envisat - Pass Details

Date: 11 December 2021
Orbit: 764 x 766 km, 98.2° (Epoch: 28 January)

Event Time Altitude Azimuth Distance (km) Brightness Sun altitude
Rises 12:49:54 0° 14° (NNE) 3,248 6.3 -23.9°
Reaches altitude 10° 12:52:13 10° 15° (NNE) 2,317 5.6 -23.6°
Maximum altitude 12:57:20 88° 104° (ESE) 774 2.9 -22.8°
Drops below altitude 10° 13:02:25 10° 196° (SSW) 2,298 5.4 -22.0°
Sets 13:04:43 0° 196° (SSW) 3,220 6.2 -21.7°
